ROMMA est une association bénévole à but non lucratif. Votre soutien est indispensable : ADHERER à ROMMA ou FAIRE un DON

Briord - (01, Ain)

Bugey (281 m)   Longitude: 05° 29' 13" E   Latitude: 45° 46' 37" N Station partenaire n°15
 

Détail journalier du     <<     >>

Température Precipitation Humidité Pression Vent Dir Rafale Dir. rafale Ensol.
Heure (°C) (mm) (%) (hPa) (km/h) (km/h) (min)
01:00 15.9090102006SE0
02:00 17.108610201ESE15E0
03:00 15.70891020013ESE0
04:00 18.807910203ESE13ESE0
05:00 16.908610201ESE13E0
06:00 14.3090102000---0
07:00 14.80911019011ESE0
08:00 14.7092102008NO0
09:00 18.1088102000---50
10:00 21.8078102000---60
11:00 24.7070102000---60
12:00 26.106110192---15SE60
13:00 26.505710194SSO15SSE60
14:00 27.905510183O15ONO60
15:00 29.105110183SSO11SSO60
16:00 29.804410184ONO13O60
17:00 31.104310172ONO11ONO60
18:00 30.804410171OSO10O60
19:00 30.804510161ONO5SO60
20:00 26.6062101600---35
21:00 20.4078101702NNO0
22:00 18.6084101700---0
23:00 17.5085101702SSE0
minuit 16.2086101702SSE0

Graphique du 24-08-2019

 

Serveur OMMA